Location: Bonneuil
(46.1010°N, 2.9693°E)
Time: 08:38:05
(UTC+00:00)

Cosmos 1140 Rocket - Pass Details

Date: 09 April 2020
Orbit: 745 x 767 km, 74.1° (Epoch: 04 June)

Event Time Altitude Azimuth Distance (km) Brightness Sun altitude
Rises 20:04:13 0° 210° (SSW) 3,202 6.7 -16.3°
Reaches altitude 10° 20:06:37 10° 214° (SW) 2,278 6.0 -16.7°
Maximum altitude 20:11:43 61° 295° (WNW) 855 4.0 -17.4°
Drops below altitude 10° 20:16:50 10° 15° (NNE) 2,279 6.2 -18.2°
Sets 20:19:14 0° 20° (NNE) 3,205 6.9 -18.5°
